Home   Weather   Stamford   Past weeks
Flag for USA

Past Weather in Stamford, Connecticut, USA — Yesterday and Last 2 Weeks

Now
48 °F

Passing clouds.


Feels Like: 41 °F
Forecast: 56 / 43 °F
Wind: 20 mph from Northwest

Location: Westchester County Airport

Current Time: Oct 18, 2019 at 7:55:51 am

Latest Report: Oct 18, 2019 at 6:56 am


Visibility: 10 mi

Pressure: 29.72 "Hg

Humidity: 68%

Dew Point: 38 °F

Location of StamfordLocation

Past Weather in Stamford — Graph

°F

Stamford Temperature Yesterday

Maximum temperature yesterday: 55 °F (at 2:56 pm)
Minimum temperature yesterday: 49 °F (at 2:56 am)
Average temperature yesterday: 52 °F

High & Low Weather Summary for the Past Weeks

 TemperatureHumidityPressure
High74 °F (Oct 7, 11:56 am)100% (Oct 3, 9:56 pm)30.47 "Hg (Oct 3, 9:56 pm)
Low38 °F (Oct 5, 5:56 am)22% (Oct 5, 3:56 pm)29.09 "Hg (Oct 16, 10:56 pm)
Average56 °F71%30.05 "Hg
* Reported Oct 3 5:56 am — Oct 18 5:56 am, Stamford. Weather by CustomWeather, © 2019

Note: Actual official high and low records may vary slightly from our data, if they occured in-between our weather recording intervals... More about our weather records

Advertising

Stamford Weather History for the Previous 24 Hours

Scroll right to see more
 ConditionsComfort  
Time TempWeatherWind HumidityBarometerVisibility
5:56 am
Fri, Oct 18
49 °FPassing clouds.16 mph69%29.70 "Hg10 mi
4:56 am49 °FPassing clouds.22 mph69%29.66 "Hg10 mi
3:56 am49 °FPassing clouds.22 mph69%29.64 "Hg10 mi
2:56 am50 °FClear.23 mph66%29.62 "Hg10 mi
1:56 am50 °FPassing clouds.22 mph66%29.62 "Hg10 mi
12:56 am51 °FPassing clouds.23 mph63%29.60 "Hg10 mi
11:56 pm
Thu, Oct 17
51 °FPassing clouds.14 mph63%29.59 "Hg10 mi
10:56 pm52 °FPassing clouds.20 mph61%29.56 "Hg10 mi
9:56 pm52 °FMostly cloudy.15 mph64%29.53 "Hg10 mi
8:56 pm53 °FPassing clouds.23 mph59%29.49 "Hg10 mi
7:56 pm53 °FPassing clouds.22 mph59%29.47 "Hg10 mi
6:56 pm53 °FPassing clouds.17 mph56%29.43 "Hg10 mi
5:56 pm54 °FScattered clouds.29 mph55%29.38 "Hg10 mi
4:56 pm54 °FScattered clouds.28 mph55%29.36 "Hg10 mi
3:56 pm55 °FPartly sunny.15 mph55%29.34 "Hg10 mi
2:56 pm55 °FPartly sunny.26 mph55%29.31 "Hg10 mi
1:56 pm54 °FPartly sunny.17 mph55%29.28 "Hg10 mi
12:56 pm53 °FPartly sunny.13 mph61%29.26 "Hg10 mi
11:56 am51 °FLight rain. Broken clouds.17 mph66%29.27 "Hg10 mi
9:56 am52 °FBroken clouds.12 mph61%29.25 "Hg10 mi
8:56 am50 °FPartly sunny.12 mph66%29.26 "Hg10 mi
7:56 am49 °FBroken clouds.13 mph74%29.26 "Hg10 mi
Weather by CustomWeather, © 2019

See weather overview